Home > Weather > Langfang > Past weeks

Flag for China Weather for the Past 2 Weeks in Langfang, Hebei, China

Now
45 °F

Sunny.


Feels Like: 38 °F
Forecast: 21 / 44 °F
Wind: 15 mph from West

Location: Beijing Airport

Current Time: Feb 6, 2016 at 4:15:20 PM

Latest Report: Feb 6, 2016 at 3:30 PM


Visibility: 10 mi

Pressure: 30.33 "Hg

Humidity: 14%

Dew point: -2 °F

Location of LangfangLocation

Historic Weather in Langfang — Graph

°F

Langfang Temperature Yesterday

Maximum temperature yesterday: 39 °F (at 3:30 PM)
Minimum temperature yesterday: 27 °F (at 6:00 AM)
Average temperature yesterday: 33 °F

High & Low Weather Summary for the Past Weeks

 TemperatureHumidityPressure
High46 °F (Feb 3, 2:30 PM)73% (Jan 29, 6:00 AM)30.89 "Hg (Jan 29, 6:00 AM)
Low1 °F (Jan 23, 7:30 AM)12% (Feb 2, 3:30 PM)30.27 "Hg (Feb 3, 3:30 PM)
Average24 °F32%30.52 "Hg
* Reported Jan 22 3:00 PM — Feb 6 3:00 PM, Langfang, Weather by CustomWeather, © 2016

Note: Actual official high and low records may vary slightly from our data, if they occured in-between our weather recording intervals... More about our weather records

Advertising

Langfang Weather History for the Previous 24 Hours

 ConditionsComfort  
Time TempWeatherWind HumidityBarometerVisibility
3:00 PM
Sat, Feb 6
43 °FSunny.13 mph15%30.33 "Hg10 mi
2:30 PM43 °FPassing clouds.13 mph15%30.36 "HgN/A
2:00 PM43 °FSunny.17 mph15%30.36 "Hg10 mi
1:30 PM43 °FPassing clouds.13 mph15%30.39 "HgN/A
1:00 PM41 °FPassing clouds.10 mph16%30.39 "HgN/A
12:00 PM41 °FPassing clouds.8 mph17%30.45 "HgN/A
11:30 AM41 °FPassing clouds.10 mph17%30.45 "HgN/A
11:00 AM39 °FSunny.10 mph20%30.45 "Hg10 mi
10:00 AM36 °FPassing clouds.3 mph25%30.48 "HgN/A
9:00 AM30 °FSunny.1 mph34%30.48 "Hg10 mi
8:30 AM25 °FPassing clouds.6 mph46%30.45 "HgN/A
8:00 AM19 °FSunny.1 mph53%30.45 "Hg10 mi
7:30 AM21 °FPassing clouds.3 mph49%30.45 "HgN/A
7:00 AM21 °FClear.1 mph49%30.45 "Hg10 mi
6:30 AM18 °FPassing clouds.3 mph58%30.45 "HgN/A
6:00 AM16 °FClear.10 mph62%30.45 "Hg10 mi
5:30 AM18 °FClear.3 mph53%30.45 "Hg10 mi
5:00 AM18 °FClear.3 mph53%30.45 "Hg10 mi
4:30 AM19 °FClear.1 mph49%30.45 "Hg10 mi
4:00 AM21 °FClear.1 mph49%30.45 "Hg10 mi
3:30 AM19 °FClear.6 mph49%30.45 "Hg10 mi
3:00 AM23 °FClear.1 mph42%30.45 "Hg10 mi
2:30 AM23 °FClear.1 mph42%30.45 "Hg10 mi
2:00 AM25 °FClear.3 mph39%30.48 "Hg10 mi
1:30 AM25 °FClear.3 mph42%30.48 "Hg10 mi
1:00 AM27 °FPassing clouds.6 mph36%30.48 "HgN/A
12:30 AM28 °FClear.13 mph37%30.48 "Hg10 mi
12:00 AM28 °FClear.13 mph34%30.48 "Hg10 mi
11:30 PM
Fri, Feb 5
27 °FClear.8 mph39%30.48 "Hg10 mi
11:00 PM28 °FClear.8 mph37%30.48 "Hg10 mi
10:30 PM30 °FClear.15 mph34%30.48 "Hg10 mi
10:00 PM30 °FClear.15 mph34%30.48 "Hg10 mi
9:30 PM32 °FClear.24 mph27%30.48 "Hg10 mi
9:00 PM32 °FClear.17 mph29%30.48 "Hg10 mi
8:30 PM34 °FClear.17 mph27%30.45 "Hg10 mi
8:00 PM34 °FClear.17 mph27%30.45 "Hg10 mi
7:30 PM34 °FClear.17 mph27%30.42 "Hg10 mi
7:00 PM36 °FClear.15 mph25%30.42 "Hg10 mi
6:30 PM36 °FClear.20 mph25%30.42 "Hg10 mi
6:00 PM36 °FClear.17 mph25%30.39 "Hg10 mi
5:30 PM36 °FPassing clouds.13 mph23%30.39 "HgN/A
5:00 PM37 °FSunny.17 mph20%30.39 "Hg10 mi
4:30 PM37 °FSunny.17 mph20%30.39 "Hg10 mi
4:00 PM37 °FSunny.15 mph20%30.39 "Hg10 mi
Weather by CustomWeather, © 2016

See weather overviewHow to use our weather pages